Latest Coastal Weather Observations for Northern Endeavour (near 10.5S 126E)

IDD60701

Issued at 1:31 pm CST Friday 24 February 2017 (issued every 10 minutes, with the page automatically refreshed every 10 minutes)

About coastal observations | Map of coastal stations | Coastal observations for NT | Marine services | Other Formats
Station Details ID: 200212 Name: NORTHERN ENDEAVOUR Lat: -10.61 Lon: 125.98 Height: 16.0 m
Data from the previous 72 hours. | See also: Recent months for locations in Northern Territory
Date/Time
CST
Temp
°C
Wind Pressure Rain since
9am
mm
Weather Cloud Vis
km
Sea
Height
m
Swell
Dir  Spd
kts
Gust
kts
hPa Trend Height
m
Period
s
Dir
24/01:30pm 30.1 W 9 10 1010.2 - - - Partly cloudy 10 - - - -
24/01:20pm 32.1 W 10 10 1010.3 - - - Partly cloudy 10 - - - -
24/01:10pm 30.8 W 10 11 1010.4 - - - Partly cloudy 10 - - - -
24/01:00pm 31.5 W 10 11 1010.4 - - - Partly cloudy 10 - - - -
24/12:50pm 32.2 W 10 11 1010.5 - - - Partly cloudy 10 - - - -
24/12:40pm 30.7 W 10 12 1010.6 - - - Partly cloudy 10 - - - -
24/12:30pm 31.6 W 10 12 1010.6 - - - Partly cloudy 10 - - - -
24/12:20pm 31.2 W 9 11 1010.8 - - - Partly cloudy 10 - - - -
24/12:10pm 32.5 W 9 12 1010.9 - - - Partly cloudy 10 - - - -
24/12:00pm 31.6 WNW 8 13 1010.9 - - - Partly cloudy 10 - - - -
24/11:50am 30.2 W 7 10 1011.2 - - - Partly cloudy 10 - - - -
24/11:40am 31.9 NW 10 11 1010.9 - - - - 10 - - - -
24/11:30am 31.2 NW 11 12 1010.6 - - - - 10 - - - -
24/11:20am 30.9 NW 11 14 1010.6 - - - - 10 - - - -
24/11:10am 31.3 WNW 9 13 1010.8 - - - - 10 - - - -
24/11:00am 32.1 WNW 8 12 1011.0 - - - - 10 - - - -
24/10:50am 32.1 WNW 8 11 1011.1 - - - - 10 - - - -
24/10:40am 32.3 WNW 9 10 1011.2 - - - - 10 - - - -
24/10:30am 31.9 W 8 11 1011.3 - - - - 10 - - - -
24/10:20am 32.3 W 9 10 1011.4 - - - - 10 - - - -
24/10:10am 32.6 W 9 10 1011.4 - - - - 10 - - - -
24/10:00am 32.3 W 8 10 1011.5 - - - - 10 - - - -
24/09:50am 31.8 W 9 12 1011.5 - - - - 10 - - - -
24/09:40am 31.7 W 9 11 1011.5 - - - - 10 - - - -
24/09:30am 31.0 W 8 9 1011.6 - - - Partly cloudy 10 - - - -
24/09:20am 30.8 W 8 9 1011.6 - - - Partly cloudy 10 - - - -
24/09:10am 29.7 W 8 10 1011.5 - - - Partly cloudy 10 - - - -
24/09:00am 30.9 W 8 10 1011.3 - - - - 10 - - - -
24/08:50am 29.9 W 8 8 1011.4 - - - - 10 - - - -
24/08:40am 30.2 W 9 9 1011.3 - - - Partly cloudy 10 - - - -
24/08:30am 30.6 WSW 8 10 1011.3 - - - Partly cloudy 10 - - - -
24/08:20am 30.1 WSW 8 11 1011.2 - - - Partly cloudy 10 - - - -
24/08:10am 29.6 WSW 9 11 1011.2 - - - Partly cloudy 10 - - - -
24/08:00am 29.2 SW 8 9 1011.2 - - - Partly cloudy 10 - - - -
24/07:50am 28.3 SW 9 12 1011.1 - - - Partly cloudy 10 - - - -
24/07:40am 28.4 SW 9 10 1011.1 - - - Partly cloudy 10 - - - -
24/07:30am 28.1 SW 9 10 1011.0 - - - Partly cloudy 10 - - - -
24/07:20am 28.0 SW 9 11 1010.9 - - - Partly cloudy 10 - - - -
24/07:10am 27.9 SW 10 10 1010.8 - - - Partly cloudy 10 - - - -
24/07:00am 27.9 SW 10 12 1010.8 - - - Partly cloudy 10 - - - -
24/06:50am 28.0 SW 9 11 1010.7 - - - - 10 - - - -
24/06:40am 28.1 SW 10 12 1010.6 - - - - 10 - - - -
24/06:30am 28.0 SW 10 13 1010.5 - - - - 10 - - - -
24/06:20am 28.1 SW 9 13 1010.4 - - - - 10 - - - -
24/06:10am 28.1 SW 10 13 1010.4 - - - - 10 - - - -
24/06:00am 28.1 SW 9 12 1010.4 - - - - 10 - - - -
24/05:50am 28.2 SW 9 8 1010.3 - - - - 10 - - - -
24/05:40am 28.2 WSW 11 14 1010.3 - - - - 10 - - - -
24/05:30am 28.1 WSW 10 12 1010.3 - - - - 10 - - - -
24/05:20am 28.2 WSW 10 13 1010.3 - - - Partly cloudy 10 - - - -
24/05:10am 28.1 WSW 11 13 1010.2 - - - Partly cloudy 10 - - - -
24/05:00am 27.9 SW 11 13 1010.1 - - - Partly cloudy 10 - - - -
24/04:50am 28.0 WSW 11 12 1010.2 - - - Partly cloudy 10 - - - -
24/04:40am 27.9 SW 11 13 1010.2 - - - Partly cloudy 10 - - - -
24/04:30am 27.9 SW 11 11 1010.2 - - - Partly cloudy 10 - - - -
24/04:20am 28.0 SW 11 12 1010.2 - - - Partly cloudy 10 - - - -
24/04:10am 28.0 SW 11 12 1010.2 - - - Partly cloudy 10 - - - -
24/04:00am 28.0 WSW 10 11 1010.2 - - - Partly cloudy 10 - - - -
24/03:50am 28.0 WSW 10 11 1010.2 - - - Partly cloudy 10 - - - -
24/03:40am 28.0 WSW 10 12 1010.3 - - - Partly cloudy 10 - - - -
24/03:30am 28.1 WSW 10 11 1010.3 - - - Partly cloudy 10 - - - -
24/03:20am 28.2 WSW 11 13 1010.3 - - - Partly cloudy 10 - - - -
24/03:10am 28.0 WSW 11 11 1010.3 - - - Partly cloudy 10 - - - -
24/03:00am 28.0 WSW 11 12 1010.4 - - - Partly cloudy 10 - - - -
24/02:50am 28.0 WSW 11 12 1010.4 - - - Partly cloudy 10 - - - -
24/02:40am 28.1 WSW 10 11 1010.5 - - - Partly cloudy 10 - - - -
24/02:30am 28.1 WSW 10 12 1010.6 - - - Partly cloudy 10 - - - -
24/02:20am 28.2 WSW 11 11 1010.6 - - - Partly cloudy 10 - - - -
24/02:10am 28.1 WSW 11 12 1010.6 - - - Partly cloudy 10 - - - -
24/02:00am 28.2 WSW 11 14 1010.7 - - - Partly cloudy 10 - - - -
24/01:50am 28.2 WSW 11 12 1010.8 - - - Partly cloudy 10 - - - -
24/01:40am 28.2 WSW 11 12 1010.8 - - - Partly cloudy 10 - - - -
24/01:30am 28.3 WSW 11 11 1010.9 - - - Partly cloudy 10 - - - -
24/01:20am 28.2 WSW 10 12 1010.9 - - - Partly cloudy 10 - - - -
24/01:10am 28.1 WSW 9 11 1010.9 - - - Partly cloudy 10 - - - -
24/01:00am 28.2 WSW 9 11 1010.9 - - - Partly cloudy 10 - - - -
24/12:50am 28.2 WSW 9 11 1011.0 - - - - 10 - - - -
24/12:40am 28.2 WSW 9 10 1011.1 - - - - 10 - - - -
24/12:30am 28.4 WSW 10 11 1011.1 - - - - 10 - - - -
24/12:20am 28.4 WSW 9 11 1011.1 - - - - 10 - - - -
24/12:10am 28.5 WSW 9 11 1011.1 - - - - 10 - - - -
24/12:00am 28.5 WSW 12 13 1011.2 - - - - 10 - - - -
 
Date/Time
CST
Temp
°C
Wind Pressure Rain since
9am
mm
Weather Cloud Vis
km
Sea
Height
m
Swell
Dir  Spd
kts
Gust
kts
hPa Trend Height
m
Period
s
Dir
23/11:50pm 28.5 SW 11 13 1011.1 - - - - 10 - - - -
23/11:40pm 28.5 W 11 10 1011.1 - - - - 10 - - - -
23/11:30pm 28.6 W 13 13 1010.9 - - - - 10 - - - -
23/11:20pm 28.6 W 12 14 1010.9 - - - - 10 - - - -
23/11:10pm 28.6 W 11 12 1010.9 - - - - 10 - - - -
23/11:00pm 28.5 W 11 12 1011.0 - - - - 10 - - - -
23/10:50pm 28.6 WSW 11 12 1010.9 - - - - 10 - - - -
23/10:40pm 28.6 WSW 8 8 1010.9 - - - - 10 - - - -
23/10:30pm 28.6 WSW 8 10 1010.9 - - - - 10 - - - -
23/10:20pm 28.6 WSW 8 12 1010.9 - - - - 10 - - - -
23/10:10pm 28.6 WSW 8 11 1010.9 - - - - 10 - - - -
23/10:00pm 28.6 WSW 10 11 1010.8 - - - - 10 - - - -
23/09:50pm 28.6 WSW 9 11 1010.7 - - - - 10 - - - -
23/09:40pm 28.6 WSW 10 12 1010.6 - - - - 10 - - - -
23/09:30pm 28.7 WSW 8 12 1010.4 - - - - 10 - - - -
23/09:20pm 28.6 WSW 7 7 1010.3 - - - - 10 - - - -
23/09:10pm 28.7 WSW 9 10 1010.3 - - - - 10 - - - -
23/09:00pm 28.7 WSW 8 9 1010.1 - - - - 10 - - - -
23/08:50pm 28.7 SW 10 12 1010.0 - - - - 10 - - - -
23/08:40pm 28.7 WSW 9 10 1009.9 - - - - 10 - - - -
23/08:30pm 28.7 WSW 10 12 1009.8 - - - - 10 - - - -
23/08:20pm 28.8 WSW 11 12 1009.7 - - - - 10 - - - -
23/08:10pm 28.8 WSW 11 15 1009.7 - - - - 10 - - - -
23/08:00pm 28.8 WSW 10 12 1009.6 - - - - 10 - - - -
23/07:50pm 28.7 WSW 10 10 1009.5 - - - - 10 - - - -
23/07:40pm 28.8 WSW 10 12 1009.4 - - - - 10 - - - -
23/07:30pm 28.9 WSW 9 10 1009.4 - - - - 10 - - - -
23/07:20pm 28.9 WSW 8 8 1009.3 - - - - 10 - - - -
23/07:10pm 28.9 W 8 11 1009.2 - - - - 10 - - - -
23/07:00pm 29.2 W 8 11 1009.1 - - - - 10 - - - -
23/06:50pm 29.2 W 7 9 1009.1 - - - - 10 - - - -
23/06:40pm 29.2 W 8 11 1009.0 - - - - 10 - - - -
23/06:30pm 29.2 W 9 9 1008.9 - - - - 10 - - - -
23/06:20pm 29.5 W 9 10 1008.9 - - - - 10 - - - -
23/06:10pm 29.4 W 9 12 1008.8 - - - - 10 - - - -
23/06:00pm 29.4 W 8 11 1008.7 - - - - 10 - - - -
23/05:50pm 29.8 W 8 9 1008.7 - - - - 10 - - - -
23/05:40pm 29.8 W 8 11 1008.6 - - - - 10 - - - -
23/05:30pm 30.0 WNW 6 8 1008.6 - - - - 10 - - - -
23/05:20pm 30.2 WNW 7 9 1008.4 - - - - 10 - - - -
23/05:10pm 30.6 WNW 8 9 1008.5 - - - - 10 - - - -
23/05:00pm 31.1 WNW 8 9 1008.5 - - - - 10 - - - -
23/04:50pm 31.4 WNW 7 8 1008.5 - - - - 10 - - - -
23/04:40pm 33.6 WNW 8 9 1008.4 - - - - 10 - - - -
23/04:30pm 32.3 WNW 7 10 1008.4 - - - - 10 - - - -
23/04:20pm 33.0 W 7 8 1008.5 - - - - 10 - - - -
23/04:10pm 32.9 W 7 11 1008.5 - - - - 10 - - - -
23/04:00pm 32.3 W 5 8 1008.6 - - - - 10 - - - -
23/03:50pm 31.5 W 5 7 1008.7 - - - - 10 - - - -
23/03:40pm 31.4 W 5 7 1008.7 - - - - 10 - - - -
23/03:30pm 30.2 WNW 6 8 1008.7 - - - - 10 - - - -
23/03:20pm 30.3 W 6 7 1008.7 - - - - 10 - - - -
23/03:10pm 30.1 W 6 7 1008.7 - - - - 10 - - - -
23/03:00pm 30.8 W 5 6 1008.8 - - - - 10 - - - -
23/02:50pm 31.9 SW 6 7 1008.9 - - - Partly cloudy 10 - - - -
23/02:40pm 31.1 WSW 5 8 1009.1 - - - Partly cloudy 10 - - - -
23/02:30pm 30.3 W 5 5 1009.2 - - - Partly cloudy 10 - - - -
23/02:20pm 31.2 W 5 6 1009.4 - - - - 10 - - - -
23/02:10pm 31.4 SW 5 6 1009.5 - - - - 10 - - - -
23/02:00pm 32.2 SSW 4 7 1009.6 - - - - 10 - - - -
23/01:50pm 32.3 SSW 5 7 1009.7 - - - - 10 - - - -
23/01:40pm 31.3 SW 3 4 1009.8 - - - - 10 - - - -
23/01:30pm 31.9 SSW 5 5 1009.9 - - - - 10 - - - -
23/01:20pm 31.3 SSW 5 7 1010.0 - - - - 10 - - - -
23/01:10pm 30.3 SSW 5 5 1010.1 - - - - 10 - - - -
23/01:00pm 29.9 SSW 6 7 1010.2 - - - - 10 - - - -
23/12:50pm 30.6 SSW 6 7 1010.2 - - - Partly cloudy 10 - - - -
23/12:40pm 30.2 SSW 6 7 1010.3 - - - Partly cloudy 10 - - - -
23/12:30pm 30.5 SSW 6 9 1010.5 - - - Partly cloudy 10 - - - -
23/12:20pm 29.9 SSW 7 8 1010.5 - - - Partly cloudy 10 - - - -
23/12:10pm 30.1 SSW 6 7 1010.6 - - - Partly cloudy 10 - - - -
23/12:00pm 29.4 SSW 7 9 1010.7 - - - Partly cloudy 10 - - - -
23/11:50am 29.2 S 6 9 1010.8 - - - Partly cloudy 10 - - - -
23/11:40am 29.0 S 7 9 1010.8 - - - Partly cloudy 10 - - - -
23/11:30am 28.9 S 7 9 1010.9 - - - Partly cloudy 10 - - - -
23/11:20am 29.1 S 5 8 1011.0 - - - Partly cloudy 10 - - - -
23/11:10am 28.8 S 7 7 1011.2 - - - Partly cloudy 10 - - - -
23/11:00am 28.9 S 7 8 1011.3 - - - Partly cloudy 10 - - - -
23/10:50am 29.1 S 7 8 1011.4 - - - Partly cloudy 10 - - - -
23/10:40am 29.0 SW 6 7 1011.4 - - - Partly cloudy 10 - - - -
23/10:30am 28.9 SSW 6 8 1011.4 - - - Partly cloudy 10 - - - -
23/10:20am 29.1 SW 6 8 1011.3 - - - Partly cloudy 10 - - - -
23/10:10am 29.1 SSW 6 7 1011.3 - - - Partly cloudy 10 - - - -
23/10:00am 29.0 S 6 7 1011.4 - - - Partly cloudy 10 - - - -
23/09:50am 28.7 SSW 6 6 1011.4 - - - Partly cloudy 10 - - - -
23/09:40am 28.6 SSW 7 7 1011.4 - - - Partly cloudy 10 - - - -
23/09:30am 29.0 SW 6 8 1011.3 - - - Partly cloudy 10 - - - -
23/09:20am 28.5 SW 6 8 1011.3 - - - - 10 - - - -
23/09:10am 29.8 SW 6 8 1011.3 - - - - 10 - - - -
23/09:00am 28.5 SW 7 9 1011.3 - - - Partly cloudy 10 - - - -
23/08:50am 28.2 SW 7 8 1011.2 - - - Partly cloudy 10 - - - -
23/08:40am 28.6 SW 6 8 1011.1 - - - Partly cloudy 10 - - - -
23/08:30am 28.9 SSW 8 10 1011.1 - - - Partly cloudy 10 - - - -
23/08:20am 28.2 SSW 8 9 1011.1 - - - Partly cloudy 10 - - - -
23/08:10am 28.3 SSW 8 11 1011.0 - - - Partly cloudy 10 - - - -
23/08:00am 28.1 SW 7 10 1010.9 - - - Partly cloudy 10 - - - -
23/07:50am 28.2 SSW 8 9 1010.8 - - - Partly cloudy 10 - - - -
23/07:40am 27.9 SSW 7 8 1010.7 - - - Partly cloudy 10 - - - -
23/07:30am 27.7 SW 8 9 1010.6 - - - Partly cloudy 10 - - - -
23/07:20am 27.5 SW 8 10 1010.5 - - - Partly cloudy 10 - - - -
23/07:10am 27.5 SW 6 8 1010.4 - - - - 10 - - - -
23/07:00am 27.5 SW 8 10 1010.5 - - - Partly cloudy 10 - - - -
23/06:50am 27.5 SW 9 10 1010.4 - - - Partly cloudy 10 - - - -
23/06:40am 27.5 SW 9 10 1010.3 - - - Partly cloudy 10 - - - -
23/06:30am 27.5 SW 10 9 1010.2 - - - Partly cloudy 10 - - - -
23/06:20am 27.5 SW 9 10 1010.0 - - - - 10 - - - -
23/06:10am 27.5 SW 9 11 1009.9 - - - Partly cloudy 10 - - - -
23/06:00am 27.4 SW 10 13 1009.8 - - - Partly cloudy 10 - - - -
23/05:50am 27.4 SW 10 11 1009.8 - - - Partly cloudy 10 - - - -
23/05:40am 27.3 SW 10 11 1009.7 - - - Partly cloudy 10 - - - -
23/05:30am 27.5 SW 10 14 1009.6 - - - Partly cloudy 10 - - - -
23/05:20am 27.5 SW 9 12 1009.6 - - - - 10 - - - -
23/05:10am 27.6 SW 9 11 1009.5 - - - - 10 - - - -
23/05:00am 27.8 SW 10 14 1009.6 - - - - 10 - - - -
23/04:50am 27.7 SW 7 13 1009.5 - - - - 10 - - - -
23/04:40am 27.6 SW 7 13 1009.6 - - - - 10 - - - -
23/04:30am 27.6 WSW 8 9 1009.6 - - - - 10 - - - -
23/04:20am 27.8 SSW 6 7 1009.6 - - - - 10 - - - -
23/04:10am 27.6 SSW 9 11 1009.6 - - - - 10 - - - -
23/04:00am 27.5 SSW 8 11 1009.6 - - - - 10 - - - -
23/03:50am 27.5 SSW 9 10 1009.7 - - - - 10 - - - -
23/03:40am 27.6 SSW 7 10 1009.7 - - - - 10 - - - -
23/03:30am 27.5 SSW 8 9 1009.7 - - - - 10 - - - -
23/03:20am 27.5 SSW 8 10 1009.8 - - - - 10 - - - -
23/03:10am 27.6 SSW 7 9 1009.9 - - - - 10 - - - -
23/03:00am 27.4 SSW 8 10 1009.9 - - - - 10 - - - -
23/02:50am 27.5 SSW 8 9 1010.0 - - - - 10 - - - -
23/02:40am 27.5 SSW 8 11 1010.1 - - - - 10 - - - -
23/02:30am 27.6 SSW 8 10 1010.2 - - - - 10 - - - -
23/02:20am 27.5 SW 8 9 1010.3 - - - - 10 - - - -
23/02:10am 27.6 SW 8 9 1010.3 - - - - 10 - - - -
23/02:00am 27.7 SW 9 9 1010.5 - - - - 10 - - - -
23/01:50am 27.7 SSW 9 10 1010.7 - - - - 10 - - - -
23/01:40am 27.7 SSW 7 8 1010.8 - - - - 10 - - - -
23/01:30am 27.7 SW 6 9 1011.0 - - - - 10 - - - -
23/01:20am 27.8 SSW 7 9 1011.0 - - - - 10 - - - -
23/01:10am 27.7 SSW 6 9 1011.2 - - - - 10 - - - -
23/01:00am 27.8 S 8 9 1011.3 - - - - 10 - - - -
23/12:50am 27.8 S 8 9 1011.3 - - - - 10 - - - -
23/12:40am 27.8 S 7 9 1011.3 - - - - 10 - - - -
23/12:30am 27.9 S 8 9 1011.3 - - - - 10 - - - -
23/12:20am 27.9 S 9 10 1011.4 - - - - 10 - - - -
23/12:10am 27.9 S 7 11 1011.4 - - - - 10 - - - -
23/12:00am 27.8 S 7 9 1011.4 - - - - 10 - - - -
 
Date/Time
CST
Temp
°C
Wind Pressure Rain since
9am
mm
Weather Cloud Vis
km
Sea
Height
m
Swell
Dir  Spd
kts
Gust
kts
hPa Trend Height
m
Period
s
Dir
22/11:50pm 27.9 S 8 10 1011.5 - - - - 10 - - - -
22/11:40pm 28.0 S 6 8 1011.6 - - - - 10 - - - -
22/11:30pm 27.9 S 7 7 1011.5 - - - - 10 - - - -
22/11:20pm 28.0 S 7 8 1011.6 - - - - 10 - - - -
22/11:10pm 28.0 S 7 9 1011.6 - - - - 10 - - - -
22/11:00pm 28.0 S 6 8 1011.6 - - - - 10 - - - -
22/10:50pm 28.0 S 7 9 1011.6 - - - Partly cloudy 10 - - - -
22/10:40pm 28.0 S 6 8 1011.6 - - - Partly cloudy 10 - - - -
22/10:30pm 28.1 S 7 9 1011.5 - - - Partly cloudy 10 - - - -
22/10:20pm 28.0 S 9 9 1011.4 - - - Partly cloudy 10 - - - -
22/10:10pm 28.1 S 5 8 1011.4 - - - Partly cloudy 10 - - - -
22/10:00pm 28.1 S 7 7 1011.4 - - - Partly cloudy 10 - - - -
22/09:50pm 28.1 S 6 10 1011.3 - - - - 10 - - - -
22/09:40pm 28.1 S 7 12 1011.3 - - - - 10 - - - -
22/09:30pm 28.2 S 9 12 1011.2 - - - - 10 - - - -
22/09:20pm 28.1 S 8 10 1011.1 - - - - 10 - - - -
22/09:10pm 28.1 S 9 10 1011.1 - - - - 10 - - - -
22/09:00pm 28.1 S 9 11 1011.0 - - - - 10 - - - -
22/08:50pm 28.2 S 9 11 1010.9 - - - - 10 - - - -
22/08:40pm 28.2 S 9 11 1010.8 - - - - 10 - - - -
22/08:30pm 28.2 S 10 10 1010.8 - - - - 10 - - - -
22/08:20pm 28.2 S 10 13 1010.5 - - - - 10 - - - -
22/08:10pm 28.1 S 10 13 1010.3 - - - - 10 - - - -
22/08:00pm 28.2 S 10 10 1010.1 - - - - 10 - - - -
22/07:50pm 28.1 S 10 11 1010.1 - - - - 10 - - - -
22/07:40pm 28.1 S 10 11 1010.0 - - - - 10 - - - -
22/07:30pm 28.2 S 10 11 1009.9 - - - - 10 - - - -
22/07:20pm 28.2 S 9 13 1009.9 - - - - 10 - - - -
22/07:10pm 28.3 S 10 10 1009.9 - - - - 10 - - - -
22/07:00pm 28.3 SSW 8 11 1009.9 - - - - 10 - - - -
22/06:50pm 28.4 S 8 11 1009.8 - - - - 10 - - - -
22/06:40pm 28.6 S 8 11 1009.8 - - - - 10 - - - -
22/06:30pm 28.6 SSW 8 10 1009.7 - - - - 10 - - - -
22/06:20pm 28.8 SSW 9 10 1009.6 - - - - 10 - - - -
22/06:10pm 29.2 SSW 9 12 1009.6 - - - - 10 - - - -
22/06:00pm 28.8 SSW 8 11 1009.6 - - - Partly cloudy 10 - - - -
22/05:50pm 28.8 SSW 8 9 1009.5 - - - - 10 - - - -
22/05:40pm 29.2 SSW 8 11 1009.6 - - - - 10 - - - -
22/05:30pm 29.1 SSW 9 11 1009.6 - - - - 10 - - - -
22/05:20pm 28.6 S 9 11 1009.5 - - - - 10 - - - -
22/05:10pm 28.8 SSW 8 13 1009.5 - - - - 10 - - - -
22/05:00pm 29.2 SW 9 10 1009.6 - - - - 10 - - - -
22/04:50pm 29.7 SSW 10 12 1009.6 - - - - 10 - - - -
22/04:40pm 29.8 SSW 9 11 1009.5 - - - - 10 - - - -
22/04:30pm 28.9 SSW 7 9 1009.4 - - - - 10 - - - -
22/04:20pm 29.7 SSW 9 11 1009.5 - - - Partly cloudy 10 - - - -
22/04:10pm 28.8 SSW 8 8 1009.5 - - - Partly cloudy 10 - - - -
22/04:00pm 28.9 S 9 10 1009.6 - - - Partly cloudy 10 - - - -
22/03:50pm 28.6 S 7 11 1009.7 - - - Partly cloudy 10 - - - -
22/03:40pm 28.9 S 8 10 1009.8 - - - - 10 - - - -
22/03:30pm 28.6 S 9 10 1009.8 - - - - 10 - - - -
22/03:20pm 28.5 SSW 8 9 1009.9 - - - - 10 - - - -
22/03:10pm 29.2 SW 8 9 1010.0 - - - - 10 - - - -
22/03:00pm 28.9 SSW 8 8 1010.1 - - - - 10 - - - -
22/02:50pm 28.8 S 8 10 1010.2 - - - - 10 - - - -
22/02:40pm 28.9 SW 7 8 1010.4 - - - - 10 - - - -
22/02:30pm 29.0 SSW 7 9 1010.5 - - - - 10 - - - -
22/02:20pm 28.9 SSW 7 8 1010.5 - - - - 10 - - - -
22/02:10pm 29.4 SW 7 10 1010.7 - - - - 10 - - - -
22/02:00pm 29.5 SW 7 10 1010.9 - - - Partly cloudy 10 - - - -
22/01:50pm 28.9 SSW 6 10 1011.0 - - - - 10 - - - -
22/01:40pm 29.1 SSW 7 9 1011.2 - - - - 10 - - - -
22/01:30pm 29.4 SW 8 9 1011.3 - - - - 10 - - - -
22/01:20pm 29.0 SSW 6 8 1011.4 - - - - 10 - - - -
22/01:10pm 29.6 SW 7 9 1011.5 - - - Partly cloudy 10 - - - -
22/01:00pm 29.0 SSW 7 10 1011.6 - - - Partly cloudy 10 - - - -
22/12:50pm 29.0 SSW 7 7 1011.7 - - - Partly cloudy 10 - - - -
22/12:40pm 29.6 SSW 8 10 1011.7 - - - Partly cloudy 10 - - - -
22/12:30pm 29.5 SSW 7 9 1011.7 - - - - 10 - - - -
22/12:20pm 29.5 SSW 6 8 1011.8 - - - - 10 - - - -
22/12:10pm 29.0 SSW 6 8 1011.8 - - - - 10 - - - -
22/12:00pm 29.6 SSW 6 7 1011.9 - - - - 10 - - - -
22/11:50am 29.5 SSW 6 8 1012.1 - - - - 10 - - - -
22/11:40am 29.2 SSW 5 8 1012.2 - - - Partly cloudy 10 - - - -
22/11:30am 29.9 SSW 6 8 1012.3 - - - - 10 - - - -
22/11:20am 28.8 SSW 6 7 1012.3 - - - Partly cloudy 10 - - - -
22/11:10am 28.9 S 6 8 1012.4 - - - Partly cloudy 10 - - - -
22/11:00am 28.4 S 5 6 1012.4 - - - Partly cloudy 10 - - - -
22/10:50am 28.3 S 6 7 1012.5 - - - - 10 - - - -
22/10:40am 28.6 S 6 6 1012.5 - - - - 10 - - - -
22/10:30am 28.5 S 5 7 1012.5 - - - - 10 - - - -
22/10:20am 28.7 S 5 6 1012.6 - - - - 10 - - - -
22/10:10am 28.5 S 6 6 1012.6 - - - - 10 - - - -
22/10:00am 28.6 S 6 7 1012.5 - - - - 10 - - - -
22/09:50am 28.5 S 5 5 1012.6 - - - - 10 - - - -
22/09:40am 28.0 S 6 6 1012.7 - - - - 10 - - - -
22/09:30am 28.2 S 6 8 1012.6 - - - - 10 - - - -
22/09:20am 28.4 S 5 8 1012.6 - - - - 10 - - - -
22/09:10am 28.0 S 5 6 1012.5 - - - - 10 - - - -
22/09:00am 28.5 S 4 5 1012.4 - - - - 10 - - - -
22/08:50am 28.2 SSW 6 6 1012.5 - - - - 10 - - - -
22/08:40am 27.9 S 6 7 1012.3 - - - - 10 - - - -
22/08:30am 28.0 S 5 6 1012.3 - - - - 10 - - - -
22/08:20am 27.8 S 6 5 1012.2 - - - - 10 - - - -
22/08:10am 27.8 S 5 7 1012.1 - - - - 10 - - - -
22/08:00am 27.5 S 6 6 1011.9 - - - - 10 - - - -
22/07:50am 27.5 SSW 6 7 1011.7 - - - - 10 - - - -
22/07:40am 27.8 S 5 6 1011.7 - - - - 10 - - - -
22/07:30am 27.5 S 5 6 1011.7 - - - Partly cloudy 10 - - - -
22/07:20am 27.5 S 4 5 1011.6 - - - Partly cloudy 10 - - - -
22/07:10am 27.3 S 4 6 1011.5 - - - Partly cloudy 10 - - - -
22/07:00am 27.4 S 4 6 1011.4 - - - - 10 - - - -
22/06:50am 27.2 SSW 5 5 1011.3 - - - - 10 - - - -
22/06:40am 27.4 SSW 4 5 1011.2 - - - - 10 - - - -
22/06:30am 27.4 SW 3 4 1011.1 - - - - 10 - - - -
22/06:20am 27.5 SW 3 5 1011.0 - - - Partly cloudy 10 - - - -
22/06:10am 27.4 WSW 3 4 1011.0 - - - - 10 - - - -
22/06:00am 27.4 WSW 4 5 1010.9 - - - - 10 - - - -
22/05:50am 27.4 WSW 4 5 1010.9 - - - - 10 - - - -
22/05:40am 27.5 WSW 4 6 1010.8 - - - - 10 - - - -
22/05:30am 27.4 WSW 4 5 1010.8 - - - - 10 - - - -
22/05:20am 27.4 WSW 4 4 1010.6 - - - - 10 - - - -
22/05:10am 27.5 SW 3 3 1010.5 - - - - 10 - - - -
22/05:00am 27.6 SW 5 4 1010.4 - - - - 10 - - - -
22/04:50am 27.5 SW 5 5 1010.3 - - - - 10 - - - -
22/04:40am 27.5 SW 5 6 1010.2 - - - - 8 - - - -
22/04:30am 27.5 SW 5 7 1010.2 - - - - 10 - - - -
22/04:20am 27.5 WSW 5 6 1010.2 - - - - 10 - - - -
22/04:10am 27.5 WSW 5 5 1010.2 - - - - 10 - - - -
22/04:00am 27.5 SW 5 5 1010.2 - - - - 10 - - - -
22/03:50am 27.6 WSW 4 6 1010.1 - - - Partly cloudy 10 - - - -
22/03:40am 27.5 SW 5 5 1010.1 - - - Partly cloudy 10 - - - -
22/03:30am 27.5 SW 5 6 1010.1 - - - Partly cloudy 10 - - - -
22/03:20am 27.5 SW 4 5 1010.1 - - - Partly cloudy 10 - - - -
22/03:10am 27.6 SW 3 5 1010.2 - - - Partly cloudy 10 - - - -
22/03:00am 27.7 WSW 3 3 1010.3 - - - Partly cloudy 10 - - - -
22/02:50am 27.6 WSW 3 3 1010.4 - - - Partly cloudy 10 - - - -
22/02:40am 27.8 SSW 3 5 1010.4 - - - Partly cloudy 10 - - - -
22/02:30am 27.8 SSW 4 5 1010.4 - - - Partly cloudy 10 - - - -
22/02:20am 27.8 SW 4 5 1010.5 - - - Partly cloudy 10 - - - -
22/02:10am 27.8 SW 4 5 1010.6 - - - Partly cloudy 10 - - - -
22/02:00am 27.8 SW 3 4 1010.7 - - - Partly cloudy 10 - - - -
22/01:50am 27.8 SW 3 4 1010.8 - - - Partly cloudy 10 - - - -
22/01:40am 27.8 S 3 4 1010.9 - - - Partly cloudy 10 - - - -
22/01:30am 27.8 SSW 3 4 1010.9 - - - Partly cloudy 10 - - - -
22/01:20am 27.6 S 3 4 1011.1 - - - Partly cloudy 10 - - - -
22/01:10am 27.7 S 3 5 1011.1 - - - - 10 - - - -
22/01:00am 27.8 S 3 5 1011.2 - - - - 10 - - - -
22/12:50am 27.9 SSE 2 4 1011.3 - - - Partly cloudy 10 - - - -
22/12:40am 27.9 SE 2 3 1011.5 - - - Partly cloudy 10 - - - -
22/12:30am 28.0 ESE 2 2 1011.6 - - - Partly cloudy 10 - - - -
22/12:20am 28.0 ESE 2 2 1011.7 - - - - 10 - - - -
22/12:10am 28.0 SE 3 2 1011.8 - - - - 10 - - - -
22/12:00am 28.0 E 3 5 1011.7 - - - - 10 - - - -
 
Date/Time
CST
Temp
°C
Wind Pressure Rain since
9am
mm
Weather Cloud Vis
km
Sea
Height
m
Swell
Dir  Spd
kts
Gust
kts
hPa Trend Height
m
Period
s
Dir
21/11:50pm 27.9 E 3 3 1011.8 - - - - 10 - - - -
21/11:40pm 27.9 E 3 4 1011.8 - - - - 10 - - - -
21/11:30pm 28.0 ESE 4 4 1011.8 - - - - 10 - - - -
21/11:20pm 28.0 ESE 4 4 1011.9 - - - - 10 - - - -
21/11:10pm 28.0 ESE 5 5 1011.9 - - - - 10 - - - -
21/11:00pm 28.0 SE 5 6 1011.8 - - - Partly cloudy 10 - - - -
21/10:50pm 28.1 SSE 5 5 1011.7 - - - - 10 - - - -
21/10:40pm 28.0 SSE 5 4 1011.7 - - - - 10 - - - -
21/10:30pm 28.2 SSE 6 6 1011.5 - - - - 10 - - - -
21/10:20pm 28.1 SSE 6 6 1011.4 - - - Partly cloudy 10 - - - -
21/10:10pm 28.1 S 5 6 1011.2 - - - Partly cloudy 10 - - - -
21/10:00pm 28.1 SSE 6 6 1011.2 - - - Partly cloudy 10 - - - -
21/09:50pm 28.0 SSE 5 7 1011.1 - - - Partly cloudy 10 - - - -
21/09:40pm 28.0 SSE 6 6 1011.0 - - - - 10 - - - -
21/09:30pm 28.1 SSE 7 6 1011.0 - - - - 10 - - - -
21/09:20pm 28.0 SSE 7 6 1010.9 - - - Partly cloudy 10 - - - -
21/09:10pm 28.0 S 6 7 1010.8 - - - - 10 - - - -
21/09:00pm 28.1 S 7 8 1010.7 - - - Partly cloudy 10 - - - -
21/08:50pm 28.1 SSE 7 8 1010.6 - - - Partly cloudy 10 - - - -
21/08:40pm 28.1 SSE 7 8 1010.5 - - - Partly cloudy 10 - - - -
21/08:30pm 28.1 S 7 8 1010.5 - - - - 10 - - - -
21/08:20pm 28.1 S 7 7 1010.4 - - - - 10 - - - -
21/08:10pm 28.1 SSE 6 7 1010.3 - - - - 10 - - - -
21/08:00pm 28.2 SSE 7 8 1010.2 - - - Partly cloudy 10 - - - -
21/07:50pm 28.4 SSE 6 9 1010.1 - - - Partly cloudy 10 - - - -
21/07:40pm 29.2 SSE 6 7 1010.0 - - - Partly cloudy 10 - - - -
21/07:30pm 29.3 S 6 10 1010.0 - - - Partly cloudy 10 - - - -
21/07:20pm 29.8 S 5 7 1009.8 - - - Partly cloudy 10 - - - -
21/07:10pm 30.1 S 5 7 1009.7 - - - Partly cloudy 10 - - - -
21/07:00pm 30.4 S 5 7 1009.6 - - - Partly cloudy 10 - - - -
21/06:50pm 31.2 S 5 6 1009.6 - - - - 9 - - - -
21/06:40pm 30.5 S 6 9 1009.4 - - - Partly cloudy 10 - - - -
21/06:30pm 30.3 S 6 7 1009.3 - - - Partly cloudy 10 - - - -
21/06:20pm 30.6 S 7 7 1009.3 - - - Partly cloudy 10 - - - -
21/06:10pm 30.2 S 7 9 1009.2 - - - Partly cloudy 10 - - - -
21/06:00pm 30.9 S 7 8 1009.2 - - - - 10 - - - -
21/05:50pm 30.9 S 6 7 1009.1 - - - Partly cloudy 10 - - - -
21/05:40pm 30.2 S 7 8 1009.0 - - - Partly cloudy 10 - - - -
21/05:30pm 30.4 S 6 8 1008.9 - - - Partly cloudy 10 - - - -
21/05:20pm 29.9 S 7 7 1008.9 - - - Partly cloudy 10 - - - -
21/05:10pm 30.4 SSE 7 9 1008.8 - - - Partly cloudy 10 - - - -
21/05:00pm 29.6 SSE 7 9 1008.8 - - - Partly cloudy 10 - - - -
21/04:50pm 29.6 SSE 7 8 1008.9 - - - Partly cloudy 10 - - - -
21/04:40pm 29.3 SSE 7 8 1008.9 - - - Partly cloudy 10 - - - -
21/04:30pm 28.8 S 6 7 1008.9 - - - Partly cloudy 10 - - - -
21/04:20pm 29.0 S 5 7 1008.9 - - - Partly cloudy 10 - - - -
21/04:10pm 30.5 S 6 6 1009.0 - - - Partly cloudy 10 - - - -
21/04:00pm 30.3 S 5 5 1009.2 - - - Partly cloudy 10 - - - -
21/03:50pm 30.6 SSE 4 5 1009.2 - - - Partly cloudy 8 - - - -
21/03:40pm 30.8 S 5 6 1009.3 - - - - 10 - - - -
21/03:30pm 30.5 S 5 6 1009.4 - - - Partly cloudy 10 - - - -
21/03:20pm 30.2 S 6 5 1009.5 - - - - 10 - - - -
21/03:10pm 30.1 S 5 6 1009.5 - - - Partly cloudy 10 - - - -
21/03:00pm 30.4 S 6 5 1009.6 - - - Partly cloudy 10 - - - -
21/02:50pm 31.3 S 5 7 1009.7 - - - Partly cloudy 10 - - - -
21/02:40pm 32.4 SSE 7 9 1009.8 - - - Partly cloudy 10 - - - -
21/02:30pm 32.1 SSE 6 10 1009.8 - - - - 10 - - - -
21/02:20pm 31.3 S 7 7 1009.9 - - - Partly cloudy 10 - - - -
21/02:10pm 31.7 S 7 7 1010.1 - - - Partly cloudy 10 - - - -
21/02:00pm 32.2 S 8 11 1010.3 - - - Partly cloudy 10 - - - -
21/01:50pm 32.4 S 8 11 1010.5 - - - Partly cloudy 10 - - - -
21/01:40pm 31.7 S 7 10 1010.7 - - - Partly cloudy 10 - - - -

Other Formats:

Comma delimited format used in spreadsheet applications
http://www.bom.gov.au/fwo/IDD60701/IDD60701.95100.axf

JavaScript Object Notation format (JSON) in row-major order
http://www.bom.gov.au/fwo/IDD60701/IDD60701.95100.json